Regional Weather Roundup
Issued by NWS Green Bay, WI

Home | Current Version | Previous Version | Graphics & Text | Print | Product List | Glossary Off
Versions: 1 2 3 4 5 6 7 8 9 10 11 12 13 14 15 16 17 18 19 20 21 22 23 24 25 26 27 28 29 30 31 32 33 34 35 36 37 38 39 40 41 42 43 44 45 46 47 48 49 50

000
ASUS43 KGRB 201711
RWRGRB

NORTH-CENTRAL AND NORTHEAST WISCONSIN REGIONAL WEATHER ROUNDUP
NATIONAL WEATHER SERVICE GREEN BAY WI
1100 AM CST FRI JAN 20 2017

WIZ005-009-010>012-018-019-201800-
NORTH CENTRAL WISCONSIN

CITY           SKY/WX    TMP DP  RH WIND       PRES   REMARKS
IRONWOOD       LGT RAIN  37  30  75 E5        29.67F
MANITOWISH WTR CLOUDY    33  33 100 SE3       29.65F
ARBOR VITAE    LGT RAIN  37  35  94 SE5       29.66S
EAGLE RIVER    CLOUDY    35  33  92 S3        29.67S
LAND O LAKES   CLOUDY    35  32  87 CALM      29.68S
RHINELANDER    CLOUDY    35  34  96 E6        29.66F FOG
PHILLIPS       CLOUDY    35  35  99 CALM      29.64F
ANTIGO         CLOUDY    33  33 100 E5        29.67F
TOMAHAWK       DRIZZLE   35  34  96 CALM      29.66F
MERRILL        CLOUDY    36  35  99 E3          N/A  FOG
$$

WIZ013-073-201800-
NORTHEAST WISCONSIN

CITY           SKY/WX    TMP DP  RH WIND       PRES   REMARKS
IRON MOUNTAIN  CLOUDY    32  29  88 E6        29.70S FOG
MARINETTE      NOT AVBL
OCONTO         CLOUDY    34  34  99 NE6       29.71F
$$

WIZ017-030-035>037-045-201800-
CENTRAL WISCONSIN

CITY           SKY/WX    TMP DP  RH WIND       PRES   REMARKS
MEDFORD        DRIZZLE   35  34  96 E5        29.64S
WAUSAU         CLOUDY    34  33  96 E6        29.65F FOG
MOSINEE        CLOUDY    30  30 100 E8        29.67F FOG
MARSHFIELD     LGT RAIN  34  33  96 E6        29.64F FOG
WISC RAPIDS    CLOUDY    35  34  96 E9        29.67F
STEVENS POINT  CLOUDY    32  32 100 E7        29.67F FOG
WAUPACA        CLOUDY    37  36  95 CALM      29.68F FOG
SHAWANO        CLOUDY    35  34  95 NE5       29.71S FOG
CLINTONVILLE   DRIZZLE   34  34 100 NE5       29.69F
WAUTOMA        LGT RAIN  35  34  96 NE7       29.68S FOG
$$

WIZ038-039-048-051-201800-
FOX VALLEY

CITY           SKY/WX    TMP DP  RH WIND       PRES   REMARKS
NWS GREEN BAY  LGT RAIN  35  35 100 NE10      29.69F FOG
APPLETON       DRIZZLE   34  34 100 NE7       29.68S FOG
OSHKOSH        CLOUDY    34  33  96 NE8       29.67F FOG
FOND DU LAC    CLOUDY    37  33  85 NE5       29.67F FOG
$$

WIZ022-050-052-201800-
EAST CENTRAL WISCONSIN

CITY           SKY/WX    TMP DP  RH WIND       PRES   REMARKS
EPHRAIM        FOG       34  34 100 E7        29.70F VSB<1/4
WASHINGTON ISL FOG       33  33 100 NE8       29.70F VSB 1/4
STURGEON BAY   FOG       35  34  96 CALM      29.71F VSB 1/4
MANITOWOC      CLOUDY    36  35  96 NE6       29.69F FOG
SHEBOYGAN      CLOUDY    36  35  96 NE10      29.68F FOG
$$

LMZ563-521-522-541>543-201800-
LAKESHORE

STATION/POSITION TIME  TEMP    WIND        PRES    VSBY  WAVE
                       AIR SEA DIR/SP/G                  HT/PER
                 (UTC) (F)     (DEG/KT/KT) (MB)    (MI)  (FT/S)
SHEBOYGAN LKSHOR 1700   35      20/  9/  9 1005.5F
KEWAUNEE LKSHORE 1648   35      30/  9/ 12 1005.4S
NORTHPORT PIER   1640   34      60/  4/  6 1006.4F
SISTER BAY LKSHO 1650   37        CALM       N/A
$$



USA.gov is the U.S. government's official web portal to all federal, state and local government web resources and services.